This is the latest recevied weather packets stored in our database for station/object K5GHS-1. If no packets are shown the sender has not sent any weather packets the latest 10 day(s).
| Time | Temp. | Humidity | Pressure | Rain* | Wind** | Luminosity | Snow |
|---|---|---|---|---|---|---|---|
| 1777924106 | 27.22° C | 53% | 1007.3 hPa | 0 mm | - | 652 W/m² | - |
| 1777923802 | 27.22° C | 53% | 1007.6 hPa | 0 mm | - | 617 W/m² | - |
| 1777923498 | 26.67° C | 53% | 1007.7 hPa | 0 mm | - | 600 W/m² | - |
| 1777923196 | 26.11° C | 54% | 1007.6 hPa | 0 mm | - | 582 W/m² | - |
| 1777922894 | 26.67° C | 53% | 1007.7 hPa | 0 mm | - | 634 W/m² | - |
| 1777922592 | 26.11° C | 54% | 1008 hPa | 0 mm | - | 547 W/m² | - |
| 1777922290 | 26.67° C | 53% | 1008.1 hPa | 0 mm | - | 459 W/m² | - |
| 1777921987 | 27.22° C | 51% | 1008.4 hPa | 0 mm | - | 652 W/m² | - |
| 1777921683 | 26.67° C | 52% | 1008.2 hPa | 0 mm | - | 730 W/m² | - |
| 1777921379 | 26.67° C | 51% | 1008.3 hPa | 0 mm | - | 657 W/m² | - |
| 1777921075 | 26.67° C | 52% | 1008.5 hPa | 0 mm | - | 724 W/m² | - |
| 1777920773 | 26.11° C | 52% | 1008.6 hPa | 0 mm | - | 661 W/m² | - |
| 1777920469 | 26.11° C | 52% | 1008.4 hPa | 0 mm | - | 701 W/m² | - |
| 1777920165 | 26.11° C | 52% | 1008.4 hPa | 0 mm | - | 654 W/m² | - |
| 1777919860 | 26.67° C | 50% | 1008.5 hPa | 0 mm | - | 686 W/m² | - |
| 1777919558 | 26.67° C | 51% | 1008.6 hPa | 0 mm | - | 667 W/m² | - |
| 1777919256 | 26.11° C | 51% | 1008.7 hPa | 0 mm | - | 658 W/m² | - |
| 1777918953 | 26.11° C | 50% | 1008.7 hPa | 0 mm | - | 599 W/m² | - |
| 1777918650 | 25.56° C | 50% | 1008.9 hPa | 0 mm | - | 628 W/m² | - |
| 1777918347 | 25.56° C | 50% | 1008.9 hPa | 0 mm | - | 493 W/m² | - |
| 1777918046 | 25.56° C | 50% | 1009 hPa | 0 mm | - | 528 W/m² | - |
| 1777917745 | 25.56° C | 49% | 1008.9 hPa | 0 mm | - | 615 W/m² | - |
| 1777917442 | 25.56° C | 48% | 1009.1 hPa | 0 mm | - | 627 W/m² | - |
| 1777917138 | 25.56° C | 49% | 1009 hPa | 0 mm | - | 618 W/m² | - |
| 1777916837 | 25° C | 49% | 1009.2 hPa | 0 mm | - | 632 W/m² | - |
* Rain latest hour (hover to see other rain measurements)
** Current wind speed in m/s (hover to see current wind gust speed)